Flag for U.S.A. Weather past 2 weeks in Tempe, Arizona, U.S.A.

Now
74 °F

Passing clouds.


Feels Like: 77 °F
Forecast: 67 / 98 °F
Wind: 6 mph from East

Location: Phoenix Sky Harbor International Airport

Current Time: May 29, 2015 at 6:07:31 AM

Latest Report: May 29, 2015 at 4:51 AM


Visibility: 10 mi

Pressure: 29.80 "Hg

Humidity: 29%

Dew point: 40 °F

Location of TempeLocation

Historic Weather in Tempe — Graph

°F

Tempe temperature yesterday

Maximum temperature yesterday: 98 °F (at 3:51 PM)
Minimum temperature yesterday: 71 °F (at 5:51 AM)
Average temperature yesterday: 86 °F

Past Weeks' High & Low Weather Summary

 TemperatureHumidityPressure
High98 °F (May 28, 3:51 PM)90% (May 15, 3:56 PM)29.96 "Hg (May 15, 3:56 PM)
Low57 °F (May 15, 11:51 PM)7% (May 18, 6:51 PM)29.67 "Hg (May 14, 3:51 PM)
Average77 °F28%29.82 "Hg
* Reported May 14 4:51 AM — May 29 4:51 AM, Tempe, Weather by CustomWeather, © 2015

Note: Actual official high and low records may vary slightly from our data, if they occured in-between our weather recording intervals... More about our weather records

Advertising

Tempe weather history for previous 24 hours

 ConditionsComfort  
Time TempWeatherWind HumidityBarometerVisibility
4:51 AM
Fri, May 29
74 °FPassing clouds.6 mph29%29.80 "Hg10 mi
3:51 AM77 °FClear.No wind20%29.79 "Hg10 mi
2:51 AM77 °FPassing clouds.6 mph20%29.78 "Hg10 mi
1:51 AM78 °FPassing clouds.6 mph21%29.78 "Hg10 mi
12:51 AM85 °FPassing clouds.5 mph13%29.78 "Hg10 mi
11:51 PM
Thu, May 28
84 °FPassing clouds.7 mph13%29.78 "Hg10 mi
10:51 PM84 °FPartly cloudy.10 mph16%29.78 "Hg10 mi
9:51 PM87 °FPartly cloudy.7 mph14%29.78 "Hg10 mi
8:51 PM92 °FPassing clouds.8 mph10%29.76 "Hg10 mi
7:51 PM95 °FPassing clouds.9 mph9%29.75 "Hg10 mi
6:51 PM96 °FPartly sunny.13 mph8%29.74 "Hg10 mi
5:51 PM97 °FScattered clouds.9 mph9%29.74 "Hg10 mi
4:51 PM98 °FPassing clouds.7 mph9%29.75 "Hg10 mi
3:51 PM98 °FPassing clouds.12 mph9%29.76 "Hg10 mi
2:51 PM96 °FPassing clouds.6 mph9%29.78 "Hg10 mi
1:51 PM97 °FPassing clouds.8 mph10%29.80 "Hg10 mi
12:51 PM95 °FSunny.5 mph10%29.83 "Hg10 mi
11:51 AM91 °FSunny.3 mph12%29.85 "Hg10 mi
10:51 AM89 °FSunny.No wind14%29.87 "Hg10 mi
9:51 AM86 °FSunny.5 mph17%29.87 "Hg10 mi
8:51 AM83 °FSunny.5 mph20%29.87 "Hg10 mi
7:51 AM78 °FSunny.7 mph23%29.87 "Hg10 mi
6:51 AM75 °FSunny.10 mph25%29.86 "Hg10 mi
Weather by CustomWeather, © 2015

See weather overviewHow to use our weather pages